Time,TemperatureF,DewpointF,PressureIn,WindDirection,WindDirectionDegrees,WindSpeedMPH,WindSpeedGustMPH,Humidity,HourlyPrecipIn,Conditions,Clouds,dailyrainin,SoftwareType,DateUTC
2014-02-10 00:04:00,-11.9,-16.8,28.05,WNW,290,3.0,4.0,78,0.00,,---,0.00,VWS V14.01,2014-02-10 06:04:00,
2014-02-10 00:09:00,-12.0,-16.9,28.05,WNW,286,1.0,4.0,78,0.00,,---,0.00,VWS V14.01,2014-02-10 06:09:00,
2014-02-10 00:15:00,-12.1,-17.0,28.05,West,278,1.0,4.0,78,0.00,,---,0.00,VWS V14.01,2014-02-10 06:15:00,
2014-02-10 00:20:00,-12.3,-17.0,28.05,WNW,292,2.0,6.0,79,0.00,,---,0.00,VWS V14.01,2014-02-10 06:20:00,
2014-02-10 00:25:00,-12.5,-17.1,28.05,WNW,292,3.0,3.0,79,0.00,,---,0.00,VWS V14.01,2014-02-10 06:25:00,
2014-02-10 00:30:00,-12.6,-17.2,28.05,WNW,289,4.0,4.0,79,0.00,,---,0.00,VWS V14.01,2014-02-10 06:30:00,
2014-02-10 00:35:00,-12.8,-17.4,28.04,WNW,284,1.0,2.0,79,0.00,,---,0.00,VWS V14.01,2014-02-10 06:35:00,
2014-02-10 00:41:00,-12.9,-17.5,28.04,WNW,291,1.0,5.0,79,0.00,,---,0.00,VWS V14.01,2014-02-10 06:41:00,
2014-02-10 00:46:00,-12.9,-17.5,28.04,WNW,298,2.0,4.0,79,0.00,,---,0.00,VWS V14.01,2014-02-10 06:46:00,
2014-02-10 00:51:00,-13.0,-17.6,28.04,WNW,296,0.0,4.0,79,0.00,,---,0.00,VWS V14.01,2014-02-10 06:51:00,
2014-02-10 00:56:00,-13.0,-17.6,28.04,WNW,283,3.0,4.0,79,0.00,,---,0.00,VWS V14.01,2014-02-10 06:56:00,
2014-02-10 01:01:00,-13.0,-17.4,28.04,WNW,294,3.0,6.0,80,0.00,,---,0.00,VWS V14.01,2014-02-10 07:01:00,
2014-02-10 01:06:00,-12.9,-17.3,28.04,West,273,5.0,5.0,80,0.00,,---,0.00,VWS V14.01,2014-02-10 07:06:00,
2014-02-10 01:11:00,-12.9,-17.3,28.04,WNW,292,0.0,5.0,80,0.00,,---,0.00,VWS V14.01,2014-02-10 07:11:00,
2014-02-10 01:16:00,-12.8,-17.2,28.04,NNW,333,6.0,7.0,80,0.00,,---,0.00,VWS V14.01,2014-02-10 07:16:00,
2014-02-10 01:21:00,-12.7,-17.1,28.04,WNW,285,3.0,5.0,80,0.00,,---,0.00,VWS V14.01,2014-02-10 07:21:00,
2014-02-10 01:26:00,-12.6,-17.0,28.04,NW,309,5.0,8.0,80,0.00,,---,0.00,VWS V14.01,2014-02-10 07:26:00,
2014-02-10 01:32:00,-12.5,-16.9,28.04,NW,308,3.0,8.0,80,0.00,,---,0.00,VWS V14.01,2014-02-10 07:32:00,
2014-02-10 01:37:00,-12.5,-16.9,28.04,NW,323,2.0,4.0,80,0.00,,---,0.00,VWS V14.01,2014-02-10 07:37:00,
2014-02-10 01:42:00,-12.5,-16.9,28.04,WNW,298,4.0,6.0,80,0.00,,---,0.00,VWS V14.01,2014-02-10 07:42:00,
2014-02-10 01:47:00,-12.5,-16.9,28.04,NW,311,2.0,2.0,80,0.00,,---,0.00,VWS V14.01,2014-02-10 07:47:00,
2014-02-10 01:52:00,-12.6,-17.0,28.04,West,278,4.0,4.0,80,0.00,,---,0.00,VWS V14.01,2014-02-10 07:52:00,
2014-02-10 01:58:00,-12.5,-16.9,28.04,WNW,294,0.0,3.0,80,0.00,,---,0.00,VWS V14.01,2014-02-10 07:58:00,
2014-02-10 02:03:00,-12.6,-17.0,28.05,WNW,302,2.0,10.0,80,0.00,,---,0.00,VWS V14.01,2014-02-10 08:03:00,
2014-02-10 02:08:00,-12.5,-16.7,28.05,WNW,292,1.0,7.0,81,0.00,,---,0.00,VWS V14.01,2014-02-10 08:08:00,
2014-02-10 02:13:00,-12.6,-16.8,28.05,West,277,6.0,6.0,81,0.00,,---,0.00,VWS V14.01,2014-02-10 08:13:00,
2014-02-10 02:18:00,-12.7,-16.9,28.05,West,271,3.0,4.0,81,0.00,,---,0.00,VWS V14.01,2014-02-10 08:18:00,
2014-02-10 02:23:00,-12.8,-17.2,28.05,West,269,4.0,7.0,80,0.00,,---,0.00,VWS V14.01,2014-02-10 08:23:00,
2014-02-10 02:29:00,-13.0,-17.4,28.05,WNW,290,1.0,4.0,80,0.00,,---,0.00,VWS V14.01,2014-02-10 08:29:00,
2014-02-10 02:34:00,-13.2,-17.4,28.06,WNW,289,4.0,5.0,81,0.00,,---,0.00,VWS V14.01,2014-02-10 08:34:00,
2014-02-10 02:39:00,-13.4,-17.8,28.06,West,277,7.0,7.0,80,0.00,,---,0.00,VWS V14.01,2014-02-10 08:39:00,
2014-02-10 02:44:00,-13.6,-17.7,28.06,WNW,289,6.0,6.0,81,0.00,,---,0.00,VWS V14.01,2014-02-10 08:44:00,
2014-02-10 02:49:00,-13.7,-17.8,28.06,WNW,286,2.0,5.0,81,0.00,,---,0.00,VWS V14.01,2014-02-10 08:49:00,
2014-02-10 02:55:00,-13.9,-18.3,28.06,WNW,284,3.0,4.0,80,0.00,,---,0.00,VWS V14.01,2014-02-10 08:55:00,
2014-02-10 03:00:00,-14.1,-18.2,28.06,WNW,287,5.0,5.0,81,0.00,,---,0.00,VWS V14.01,2014-02-10 09:00:00,
2014-02-10 03:05:00,-14.2,-18.3,28.06,WNW,283,1.0,2.0,81,0.00,,---,0.00,VWS V14.01,2014-02-10 09:05:00,
2014-02-10 03:10:00,-14.3,-18.4,28.06,WNW,288,4.0,5.0,81,0.00,,---,0.00,VWS V14.01,2014-02-10 09:10:00,
2014-02-10 03:16:00,-14.5,-18.9,28.06,WNW,286,2.0,3.0,80,0.00,,---,0.00,VWS V14.01,2014-02-10 09:16:00,
2014-02-10 03:21:00,-14.6,-18.7,28.06,West,277,1.0,3.0,81,0.00,,---,0.00,VWS V14.01,2014-02-10 09:21:00,
2014-02-10 03:26:00,-14.7,-18.8,28.06,WNW,283,2.0,5.0,81,0.00,,---,0.00,VWS V14.01,2014-02-10 09:26:00,
2014-02-10 03:31:00,-14.7,-18.8,28.06,WNW,284,3.0,3.0,81,0.00,,---,0.00,VWS V14.01,2014-02-10 09:31:00,
2014-02-10 03:36:00,-14.7,-18.8,28.06,West,281,2.0,4.0,81,0.00,,---,0.00,VWS V14.01,2014-02-10 09:36:00,
2014-02-10 03:41:00,-14.5,-18.6,28.06,West,271,6.0,6.0,81,0.00,,---,0.00,VWS V14.01,2014-02-10 09:41:00,
2014-02-10 03:47:00,-14.5,-18.6,28.06,West,259,4.0,7.0,81,0.00,,---,0.00,VWS V14.01,2014-02-10 09:47:00,
2014-02-10 03:52:00,-14.4,-18.5,28.06,WNW,290,1.0,5.0,81,0.00,,---,0.00,VWS V14.01,2014-02-10 09:52:00,
2014-02-10 03:57:00,-14.5,-18.6,28.06,West,281,4.0,4.0,81,0.00,,---,0.00,VWS V14.01,2014-02-10 09:57:00,
2014-02-10 04:02:00,-14.5,-18.6,28.06,WNW,292,1.0,2.0,81,0.00,,---,0.00,VWS V14.01,2014-02-10 10:02:00,
2014-02-10 04:07:00,-14.7,-18.8,28.06,WNW,298,1.0,2.0,81,0.00,,---,0.00,VWS V14.01,2014-02-10 10:07:00,
2014-02-10 04:12:00,-14.7,-18.8,28.06,West,274,5.0,6.0,81,0.00,,---,0.00,VWS V14.01,2014-02-10 10:12:00,
2014-02-10 04:18:00,-14.7,-18.8,28.06,West,265,3.0,7.0,81,0.00,,---,0.00,VWS V14.01,2014-02-10 10:18:00,
2014-02-10 04:23:00,-14.8,-18.9,28.06,WNW,294,3.0,5.0,81,0.00,,---,0.00,VWS V14.01,2014-02-10 10:23:00,
2014-02-10 04:28:00,-14.8,-18.9,28.06,West,277,2.0,3.0,81,0.00,,---,0.00,VWS V14.01,2014-02-10 10:28:00,
2014-02-10 04:33:00,-14.8,-18.9,28.06,West,274,3.0,3.0,81,0.00,,---,0.00,VWS V14.01,2014-02-10 10:33:00,
2014-02-10 04:38:00,-14.8,-18.9,28.06,WNW,288,1.0,2.0,81,0.00,,---,0.00,VWS V14.01,2014-02-10 10:38:00,
2014-02-10 04:43:00,-14.8,-18.9,28.06,West,281,6.0,6.0,81,0.00,,---,0.00,VWS V14.01,2014-02-10 10:43:00,
2014-02-10 04:49:00,-14.7,-18.8,28.06,NNW,335,6.0,8.0,81,0.00,,---,0.00,VWS V14.01,2014-02-10 10:49:00,
2014-02-10 04:54:00,-14.7,-18.8,28.06,West,277,2.0,3.0,81,0.00,,---,0.00,VWS V14.01,2014-02-10 10:54:00,
2014-02-10 04:59:00,-14.7,-18.8,28.06,NW,308,3.0,3.0,81,0.00,,---,0.00,VWS V14.01,2014-02-10 10:59:00,
2014-02-10 05:04:00,-14.7,-19.1,28.07,West,265,2.0,4.0,80,0.00,,---,0.00,VWS V14.01,2014-02-10 11:04:00,
2014-02-10 05:09:00,-14.7,-18.8,28.07,WNW,284,1.0,5.0,81,0.00,,---,0.00,VWS V14.01,2014-02-10 11:09:00,
2014-02-10 05:15:00,-14.5,-18.6,28.07,West,273,2.0,8.0,81,0.00,,---,0.00,VWS V14.01,2014-02-10 11:15:00,
2014-02-10 05:20:00,-14.5,-18.6,28.07,WNW,287,5.0,5.0,81,0.00,,---,0.00,VWS V14.01,2014-02-10 11:20:00,
2014-02-10 05:25:00,-14.5,-18.6,28.07,West,279,2.0,5.0,81,0.00,,---,0.00,VWS V14.01,2014-02-10 11:25:00,
2014-02-10 05:30:00,-14.5,-18.9,28.07,WNW,294,2.0,2.0,80,0.00,,---,0.00,VWS V14.01,2014-02-10 11:30:00,
2014-02-10 05:35:00,-14.5,-18.9,28.07,WNW,286,3.0,7.0,80,0.00,,---,0.00,VWS V14.01,2014-02-10 11:35:00,
2014-02-10 05:41:00,-14.5,-18.9,28.07,West,281,2.0,4.0,80,0.00,,---,0.00,VWS V14.01,2014-02-10 11:41:00,
2014-02-10 05:46:00,-14.4,-18.8,28.07,WNW,283,4.0,6.0,80,0.00,,---,0.00,VWS V14.01,2014-02-10 11:46:00,
2014-02-10 05:51:00,-14.4,-18.8,28.07,WNW,283,0.0,1.0,80,0.00,,---,0.00,VWS V14.01,2014-02-10 11:51:00,
2014-02-10 05:56:00,-14.3,-18.7,28.07,West,275,3.0,5.0,80,0.00,,---,0.00,VWS V14.01,2014-02-10 11:56:00,
2014-02-10 06:02:00,-14.3,-18.7,28.07,WNW,283,5.0,5.0,80,0.00,,---,0.00,VWS V14.01,2014-02-10 12:02:00,
2014-02-10 06:07:00,-14.2,-18.3,28.07,West,276,1.0,5.0,81,0.00,,---,0.00,VWS V14.01,2014-02-10 12:07:00,
2014-02-10 06:12:00,-14.2,-18.6,28.07,West,279,3.0,7.0,80,0.00,,---,0.00,VWS V14.01,2014-02-10 12:12:00,
2014-02-10 06:17:00,-14.2,-18.6,28.08,West,280,4.0,6.0,80,0.00,,---,0.00,VWS V14.01,2014-02-10 12:17:00,
2014-02-10 06:22:00,-14.2,-18.6,28.08,WNW,283,2.0,5.0,80,0.00,,---,0.00,VWS V14.01,2014-02-10 12:22:00,
2014-02-10 06:28:00,-14.2,-18.6,28.08,West,281,4.0,7.0,80,0.00,,---,0.00,VWS V14.01,2014-02-10 12:28:00,
2014-02-10 06:33:00,-14.3,-18.7,28.08,WNW,284,1.0,5.0,80,0.00,,---,0.00,VWS V14.01,2014-02-10 12:33:00,
2014-02-10 06:38:00,-14.3,-18.7,28.08,WNW,296,4.0,6.0,80,0.00,,---,0.00,VWS V14.01,2014-02-10 12:38:00,
2014-02-10 06:43:00,-14.3,-18.7,28.08,West,275,3.0,3.0,80,0.00,,---,0.00,VWS V14.01,2014-02-10 12:43:00,
2014-02-10 06:48:00,-14.4,-18.8,28.08,WNW,285,2.0,3.0,80,0.00,,---,0.00,VWS V14.01,2014-02-10 12:48:00,
2014-02-10 06:53:00,-14.4,-18.8,28.08,WNW,286,1.0,5.0,80,0.00,,---,0.00,VWS V14.01,2014-02-10 12:53:00,
2014-02-10 06:58:00,-14.4,-18.8,28.08,West,277,7.0,7.0,80,0.00,,---,0.00,VWS V14.01,2014-02-10 12:58:00,
2014-02-10 07:04:00,-14.4,-18.8,28.08,NW,315,3.0,6.0,80,0.00,,---,0.00,VWS V14.01,2014-02-10 13:04:00,
2014-02-10 07:09:00,-14.5,-18.9,28.08,West,281,7.0,7.0,80,0.00,,---,0.00,VWS V14.01,2014-02-10 13:09:00,
2014-02-10 07:14:00,-14.5,-18.9,28.08,WNW,283,6.0,6.0,80,0.00,,---,0.00,VWS V14.01,2014-02-10 13:14:00,
2014-02-10 07:19:00,-14.6,-19.0,28.09,WNW,284,3.0,6.0,80,0.00,,---,0.00,VWS V14.01,2014-02-10 13:19:00,
2014-02-10 07:24:00,-14.7,-19.1,28.09,WNW,292,3.0,6.0,80,0.00,,---,0.00,VWS V14.01,2014-02-10 13:24:00,
2014-02-10 07:29:00,-14.7,-19.1,28.09,West,281,1.0,4.0,80,0.00,,---,0.00,VWS V14.01,2014-02-10 13:29:00,
2014-02-10 07:34:00,-14.7,-19.1,28.09,West,280,4.0,5.0,80,0.00,,---,0.00,VWS V14.01,2014-02-10 13:34:00,
2014-02-10 07:39:00,-14.7,-19.1,28.09,WNW,286,5.0,6.0,80,0.00,,---,0.00,VWS V14.01,2014-02-10 13:39:00,
2014-02-10 07:45:00,-14.6,-19.0,28.09,West,281,6.0,7.0,80,0.00,,---,0.00,VWS V14.01,2014-02-10 13:45:00,
2014-02-10 07:50:00,-14.5,-18.9,28.09,West,279,5.0,5.0,80,0.00,,---,0.00,VWS V14.01,2014-02-10 13:50:00,
2014-02-10 07:55:00,-14.4,-18.8,28.09,West,276,4.0,5.0,80,0.00,,---,0.00,VWS V14.01,2014-02-10 13:55:00,
2014-02-10 08:00:00,-14.2,-18.3,28.09,West,275,7.0,7.0,81,0.00,,---,0.00,VWS V14.01,2014-02-10 14:00:00,
2014-02-10 08:05:00,-14.0,-18.1,28.10,West,278,1.0,3.0,81,0.00,,---,0.00,VWS V14.01,2014-02-10 14:05:00,
2014-02-10 08:11:00,-13.8,-18.2,28.10,West,280,2.0,4.0,80,0.00,,---,0.00,VWS V14.01,2014-02-10 14:11:00,
2014-02-10 08:16:00,-13.5,-17.6,28.10,West,281,3.0,3.0,81,0.00,,---,0.00,VWS V14.01,2014-02-10 14:16:00,
2014-02-10 08:21:00,-13.3,-17.7,28.10,WNW,292,3.0,3.0,80,0.00,,---,0.00,VWS V14.01,2014-02-10 14:21:00,
2014-02-10 08:26:00,-13.0,-17.1,28.10,WNW,290,4.0,6.0,81,0.00,,---,0.00,VWS V14.01,2014-02-10 14:26:00,
2014-02-10 08:32:00,-12.8,-17.2,28.10,WNW,284,4.0,6.0,80,0.00,,---,0.00,VWS V14.01,2014-02-10 14:32:00,
2014-02-10 08:37:00,-12.7,-17.1,28.10,West,271,3.0,6.0,80,0.00,,---,0.00,VWS V14.01,2014-02-10 14:37:00,
2014-02-10 08:42:00,-12.6,-17.0,28.10,West,277,6.0,6.0,80,0.00,,---,0.00,VWS V14.01,2014-02-10 14:42:00,
2014-02-10 08:47:00,-12.4,-16.8,28.10,WNW,285,2.0,5.0,80,0.00,,---,0.00,VWS V14.01,2014-02-10 14:47:00,
2014-02-10 08:52:00,-12.3,-16.7,28.10,NNW,329,5.0,5.0,80,0.00,,---,0.00,VWS V14.01,2014-02-10 14:52:00,
2014-02-10 08:58:00,-12.1,-16.5,28.10,NNW,340,5.0,7.0,80,0.00,,---,0.00,VWS V14.01,2014-02-10 14:58:00,
2014-02-10 09:03:00,-12.0,-16.4,28.10,West,276,5.0,8.0,80,0.00,,---,0.00,VWS V14.01,2014-02-10 15:03:00,
2014-02-10 09:08:00,-11.9,-16.3,28.10,NNW,331,5.0,7.0,80,0.00,,---,0.00,VWS V14.01,2014-02-10 15:08:00,
2014-02-10 09:13:00,-11.8,-16.2,28.10,NW,326,7.0,10.0,80,0.00,,---,0.00,VWS V14.01,2014-02-10 15:13:00,
2014-02-10 09:18:00,-11.0,-15.2,28.11,WNW,298,0.0,3.0,81,0.00,,---,0.00,VWS V14.01,2014-02-10 15:18:00,
2014-02-10 09:23:00,-10.5,-14.9,28.11,WNW,301,4.0,7.0,80,0.00,,---,0.00,VWS V14.01,2014-02-10 15:23:00,
2014-02-10 09:29:00,-10.8,-15.5,28.11,WNW,301,3.0,5.0,79,0.00,,---,0.00,VWS V14.01,2014-02-10 15:29:00,
2014-02-10 09:34:00,-10.8,-15.5,28.12,WNW,303,5.0,8.0,79,0.00,,---,0.00,VWS V14.01,2014-02-10 15:34:00,
2014-02-10 09:39:00,-10.2,-14.9,28.12,West,281,1.0,3.0,79,0.00,,---,0.00,VWS V14.01,2014-02-10 15:39:00,
2014-02-10 09:44:00,-9.8,-14.5,28.12,West,277,2.0,7.0,79,0.00,,---,0.00,VWS V14.01,2014-02-10 15:44:00,
2014-02-10 09:49:00,-9.7,-14.7,28.12,WNW,284,2.0,5.0,78,0.00,,---,0.00,VWS V14.01,2014-02-10 15:49:00,
2014-02-10 09:54:00,-9.3,-14.3,28.12,NNW,344,5.0,7.0,78,0.00,,---,0.00,VWS V14.01,2014-02-10 15:54:00,
2014-02-10 09:59:00,-9.1,-14.3,28.12,WNW,290,6.0,8.0,77,0.00,,---,0.00,VWS V14.01,2014-02-10 15:59:00,
2014-02-10 10:05:00,-9.2,-14.4,28.12,NW,304,2.0,4.0,77,0.00,,---,0.00,VWS V14.01,2014-02-10 16:05:00,
2014-02-10 10:10:00,-9.0,-14.5,28.12,West,275,7.0,7.0,76,0.00,,---,0.00,VWS V14.01,2014-02-10 16:10:00,
2014-02-10 10:15:00,-9.2,-14.7,28.12,WNW,300,9.0,9.0,76,0.00,,---,0.00,VWS V14.01,2014-02-10 16:15:00,
2014-02-10 10:20:00,-9.3,-14.8,28.12,WNW,290,1.0,6.0,76,0.00,,---,0.00,VWS V14.01,2014-02-10 16:20:00,
2014-02-10 10:25:00,-9.3,-14.8,28.12,NW,305,7.0,7.0,76,0.00,,---,0.00,VWS V14.01,2014-02-10 16:25:00,
2014-02-10 10:30:00,-9.1,-14.6,28.12,West,270,4.0,5.0,76,0.00,,---,0.00,VWS V14.01,2014-02-10 16:30:00,
2014-02-10 10:35:00,-8.9,-14.4,28.12,West,267,6.0,7.0,76,0.00,,---,0.00,VWS V14.01,2014-02-10 16:35:00,
2014-02-10 10:41:00,-8.5,-14.3,28.12,WNW,292,9.0,9.0,75,0.00,,---,0.00,VWS V14.01,2014-02-10 16:41:00,
2014-02-10 10:46:00,-8.1,-13.9,28.12,West,279,1.0,5.0,75,0.00,,---,0.00,VWS V14.01,2014-02-10 16:46:00,
2014-02-10 10:51:00,-8.0,-13.8,28.13,WNW,301,5.0,9.0,75,0.00,,---,0.00,VWS V14.01,2014-02-10 16:51:00,
2014-02-10 10:56:00,-7.7,-13.8,28.13,WNW,293,7.0,8.0,74,0.00,,---,0.00,VWS V14.01,2014-02-10 16:56:00,
2014-02-10 11:01:00,-7.6,-13.7,28.13,WNW,296,2.0,7.0,74,0.00,,---,0.00,VWS V14.01,2014-02-10 17:01:00,
2014-02-10 11:06:00,-7.4,-13.5,28.13,WNW,286,3.0,8.0,74,0.00,,---,0.00,VWS V14.01,2014-02-10 17:06:00,
2014-02-10 11:11:00,-6.7,-13.1,28.13,West,267,5.0,7.0,73,0.00,,---,0.00,VWS V14.01,2014-02-10 17:11:00,
2014-02-10 11:16:00,-6.5,-13.1,28.13,NW,304,2.0,5.0,72,0.00,,---,0.00,VWS V14.01,2014-02-10 17:16:00,
2014-02-10 11:21:00,-6.3,-13.0,28.12,WNW,286,5.0,8.0,72,0.00,,---,0.00,VWS V14.01,2014-02-10 17:21:00,
2014-02-10 11:27:00,-6.5,-13.1,28.12,West,273,3.0,8.0,72,0.00,,---,0.00,VWS V14.01,2014-02-10 17:27:00,
2014-02-10 11:32:00,-6.2,-12.9,28.12,WNW,303,6.0,7.0,72,0.00,,---,0.00,VWS V14.01,2014-02-10 17:32:00,
2014-02-10 11:37:00,-5.4,-12.4,28.12,NW,326,10.0,10.0,71,0.00,,---,0.00,VWS V14.01,2014-02-10 17:37:00,
2014-02-10 11:42:00,-5.2,-12.5,28.12,NW,325,4.0,4.0,70,0.00,,---,0.00,VWS V14.01,2014-02-10 17:42:00,
2014-02-10 11:47:00,-4.9,-12.2,28.12,NW,314,5.0,7.0,70,0.00,,---,0.00,VWS V14.01,2014-02-10 17:47:00,
2014-02-10 11:52:00,-4.4,-11.7,28.12,NW,305,3.0,7.0,70,0.00,,---,0.00,VWS V14.01,2014-02-10 17:52:00,
2014-02-10 11:58:00,-3.6,-11.5,28.12,NW,326,3.0,8.0,68,0.00,,---,0.00,VWS V14.01,2014-02-10 17:58:00,
2014-02-10 12:03:00,-3.5,-11.7,28.12,NNW,339,8.0,13.0,67,0.00,,---,0.00,VWS V14.01,2014-02-10 18:03:00,
2014-02-10 12:08:00,-3.9,-12.1,28.12,NW,315,4.0,11.0,67,0.00,,---,0.00,VWS V14.01,2014-02-10 18:08:00,
2014-02-10 12:13:00,-3.6,-11.5,28.12,NNE,22,8.0,9.0,68,0.00,,---,0.00,VWS V14.01,2014-02-10 18:13:00,
2014-02-10 12:18:00,-3.1,-11.0,28.11,NNW,340,5.0,11.0,68,0.00,,---,0.00,VWS V14.01,2014-02-10 18:18:00,
2014-02-10 12:23:00,-3.0,-11.2,28.11,NNW,343,11.0,14.0,67,0.00,,---,0.00,VWS V14.01,2014-02-10 18:23:00,
2014-02-10 12:28:00,-3.4,-11.6,28.11,NNW,342,5.0,10.0,67,0.00,,---,0.00,VWS V14.01,2014-02-10 18:28:00,
2014-02-10 12:33:00,-2.7,-10.9,28.11,NNW,340,7.0,12.0,67,0.00,,---,0.00,VWS V14.01,2014-02-10 18:33:00,
2014-02-10 12:38:00,-3.1,-11.3,28.11,NNW,343,3.0,7.0,67,0.00,,---,0.00,VWS V14.01,2014-02-10 18:38:00,
2014-02-10 12:44:00,-2.3,-10.6,28.11,NNE,24,10.0,10.0,67,0.00,,---,0.00,VWS V14.01,2014-02-10 18:44:00,
2014-02-10 12:49:00,-2.3,-10.9,28.11,North,5,6.0,9.0,66,0.00,,---,0.00,VWS V14.01,2014-02-10 18:49:00,
2014-02-10 12:54:00,-2.0,-10.6,28.11,NNW,342,4.0,10.0,66,0.00,,---,0.00,VWS V14.01,2014-02-10 18:54:00,
2014-02-10 12:59:00,-1.9,-10.5,28.11,NW,320,12.0,13.0,66,0.00,,---,0.00,VWS V14.01,2014-02-10 18:59:00,
2014-02-10 13:04:00,-2.7,-11.2,28.11,NW,309,5.0,10.0,66,0.00,,---,0.00,VWS V14.01,2014-02-10 19:04:00,
2014-02-10 13:09:00,-2.4,-10.6,28.11,NNW,338,7.0,8.0,67,0.00,,---,0.00,VWS V14.01,2014-02-10 19:09:00,
2014-02-10 13:14:00,-2.4,-10.6,28.11,North,5,6.0,10.0,67,0.00,,---,0.00,VWS V14.01,2014-02-10 19:14:00,
2014-02-10 13:19:00,-2.4,-10.3,28.11,WNW,283,5.0,6.0,68,0.00,,---,0.00,VWS V14.01,2014-02-10 19:19:00,
2014-02-10 13:25:00,-2.5,-10.4,28.11,NW,306,5.0,8.0,68,0.00,,---,0.00,VWS V14.01,2014-02-10 19:25:00,
2014-02-10 13:30:00,-2.0,-10.0,28.11,West,276,4.0,7.0,68,0.00,,---,0.00,VWS V14.01,2014-02-10 19:30:00,
2014-02-10 13:35:00,-2.2,-10.1,28.10,WNW,294,4.0,7.0,68,0.00,,---,0.00,VWS V14.01,2014-02-10 19:35:00,
2014-02-10 13:40:00,-2.1,-10.1,28.10,NW,316,3.0,6.0,68,0.00,,---,0.00,VWS V14.01,2014-02-10 19:40:00,
2014-02-10 13:45:00,-2.0,-10.0,28.10,WNW,286,5.0,6.0,68,0.00,,---,0.00,VWS V14.01,2014-02-10 19:45:00,
2014-02-10 13:51:00,-1.7,-9.7,28.10,West,267,5.0,8.0,68,0.00,,---,0.00,VWS V14.01,2014-02-10 19:51:00,
2014-02-10 13:56:00,-1.6,-9.6,28.10,WNW,284,2.0,4.0,68,0.00,,---,0.00,VWS V14.01,2014-02-10 19:56:00,
2014-02-10 14:01:00,-1.0,-9.0,28.10,WNW,300,3.0,5.0,68,0.00,,---,0.00,VWS V14.01,2014-02-10 20:01:00,
2014-02-10 14:06:00,-1.2,-9.5,28.10,WNW,286,5.0,6.0,67,0.00,,---,0.00,VWS V14.01,2014-02-10 20:06:00,
2014-02-10 14:11:00,-0.7,-8.7,28.10,West,266,2.0,5.0,68,0.00,,---,0.00,VWS V14.01,2014-02-10 20:11:00,
2014-02-10 14:17:00,-0.2,-8.5,28.10,NNW,331,6.0,6.0,67,0.00,,---,0.00,VWS V14.01,2014-02-10 20:17:00,
2014-02-10 14:22:00,-0.5,-8.8,28.10,West,263,7.0,9.0,67,0.00,,---,0.00,VWS V14.01,2014-02-10 20:22:00,
2014-02-10 14:27:00,-0.4,-8.7,28.10,WNW,297,3.0,4.0,67,0.00,,---,0.00,VWS V14.01,2014-02-10 20:27:00,
2014-02-10 14:32:00,-0.2,-8.8,28.11,NW,318,10.0,10.0,66,0.00,,---,0.00,VWS V14.01,2014-02-10 20:32:00,
2014-02-10 14:37:00,-0.6,-8.9,28.11,West,271,2.0,2.0,67,0.00,,---,0.00,VWS V14.01,2014-02-10 20:37:00,
2014-02-10 14:43:00,-0.1,-8.7,28.11,NNW,335,4.0,6.0,66,0.00,,---,0.00,VWS V14.01,2014-02-10 20:43:00,
2014-02-10 14:48:00,-0.1,-8.6,28.11,North,349,3.0,8.0,66,0.00,,---,0.00,VWS V14.01,2014-02-10 20:48:00,
2014-02-10 14:53:00,-0.1,-8.7,28.11,West,271,2.0,2.0,66,0.00,,---,0.00,VWS V14.01,2014-02-10 20:53:00,
2014-02-10 14:58:00,0.1,-8.6,28.11,NNW,344,11.0,11.0,66,0.00,,---,0.00,VWS V14.01,2014-02-10 20:58:00,
2014-02-10 15:03:00,0.2,-8.4,28.12,West,267,7.0,7.0,66,0.00,,---,0.00,VWS V14.01,2014-02-10 21:03:00,
2014-02-10 15:08:00,0.3,-8.4,28.12,NNW,339,3.0,3.0,66,0.00,,---,0.00,VWS V14.01,2014-02-10 21:08:00,
2014-02-10 15:13:00,0.4,-8.3,28.12,NNW,342,1.0,5.0,66,0.00,,---,0.00,VWS V14.01,2014-02-10 21:13:00,
2014-02-10 15:18:00,1.0,-8.0,28.12,WSW,241,1.0,3.0,65,0.00,,---,0.00,VWS V14.01,2014-02-10 21:18:00,
2014-02-10 15:23:00,0.9,-8.4,28.12,West,265,3.0,4.0,64,0.00,,---,0.00,VWS V14.01,2014-02-10 21:23:00,
2014-02-10 15:28:00,0.5,-8.5,28.12,WNW,289,2.0,2.0,65,0.00,,---,0.00,VWS V14.01,2014-02-10 21:28:00,
2014-02-10 15:33:00,0.8,-8.2,28.12,NNW,332,7.0,8.0,65,0.00,,---,0.00,VWS V14.01,2014-02-10 21:33:00,
2014-02-10 15:39:00,0.8,-8.2,28.12,WNW,288,4.0,4.0,65,0.00,,---,0.00,VWS V14.01,2014-02-10 21:39:00,
2014-02-10 15:44:00,0.8,-8.2,28.12,WNW,288,1.0,2.0,65,0.00,,---,0.00,VWS V14.01,2014-02-10 21:44:00,
2014-02-10 15:49:00,0.9,-8.1,28.12,NW,319,2.0,3.0,65,0.00,,---,0.00,VWS V14.01,2014-02-10 21:49:00,
2014-02-10 15:54:00,1.0,-8.0,28.12,NW,315,5.0,6.0,65,0.00,,---,0.00,VWS V14.01,2014-02-10 21:54:00,
2014-02-10 15:59:00,0.9,-7.8,28.12,NNW,327,1.0,3.0,66,0.00,,---,0.00,VWS V14.01,2014-02-10 21:59:00,
2014-02-10 16:04:00,0.8,-8.2,28.12,North,360,2.0,2.0,65,0.00,,---,0.00,VWS V14.01,2014-02-10 22:04:00,
2014-02-10 16:09:00,1.0,-8.0,28.12,WNW,286,4.0,8.0,65,0.00,,---,0.00,VWS V14.01,2014-02-10 22:09:00,
2014-02-10 16:14:00,0.9,-8.1,28.12,WNW,292,3.0,4.0,65,0.00,,---,0.00,VWS V14.01,2014-02-10 22:14:00,
2014-02-10 16:20:00,0.8,-7.9,28.12,WNW,289,3.0,6.0,66,0.00,,---,0.00,VWS V14.01,2014-02-10 22:20:00,
2014-02-10 16:25:00,0.6,-8.1,28.12,NW,313,1.0,6.0,66,0.00,,---,0.00,VWS V14.01,2014-02-10 22:25:00,
2014-02-10 16:30:00,0.3,-8.4,28.12,WNW,301,4.0,4.0,66,0.00,,---,0.00,VWS V14.01,2014-02-10 22:30:00,
2014-02-10 16:35:00,0.2,-8.4,28.13,NW,323,5.0,5.0,66,0.00,,---,0.00,VWS V14.01,2014-02-10 22:35:00,
2014-02-10 16:40:00,0.1,-8.2,28.13,WSW,253,3.0,5.0,67,0.00,,---,0.00,VWS V14.01,2014-02-10 22:40:00,
2014-02-10 16:45:00,-0.2,-8.5,28.13,WNW,291,5.0,6.0,67,0.00,,---,0.00,VWS V14.01,2014-02-10 22:45:00,
2014-02-10 16:50:00,-0.5,-8.8,28.13,WNW,286,1.0,1.0,67,0.00,,---,0.00,VWS V14.01,2014-02-10 22:50:00,
2014-02-10 16:55:00,-0.7,-8.7,28.13,West,281,5.0,5.0,68,0.00,,---,0.00,VWS V14.01,2014-02-10 22:55:00,
2014-02-10 17:01:00,-0.9,-8.9,28.13,West,275,6.0,6.0,68,0.00,,---,0.00,VWS V14.01,2014-02-10 23:01:00,
2014-02-10 17:06:00,-1.2,-9.2,28.14,West,281,2.0,7.0,68,0.00,,---,0.00,VWS V14.01,2014-02-10 23:06:00,
2014-02-10 17:11:00,-1.5,-9.2,28.14,West,280,2.0,2.0,69,0.00,,---,0.00,VWS V14.01,2014-02-10 23:11:00,
2014-02-10 17:16:00,-1.8,-9.5,28.14,West,277,4.0,5.0,69,0.00,,---,0.00,VWS V14.01,2014-02-10 23:16:00,
2014-02-10 17:21:00,-1.9,-9.3,28.14,West,276,1.0,2.0,70,0.00,,---,0.00,VWS V14.01,2014-02-10 23:21:00,
2014-02-10 17:27:00,-2.2,-9.6,28.14,West,277,4.0,4.0,70,0.00,,---,0.00,VWS V14.01,2014-02-10 23:27:00,
2014-02-10 17:32:00,-2.5,-9.9,28.14,West,275,1.0,2.0,70,0.00,,---,0.00,VWS V14.01,2014-02-10 23:32:00,
2014-02-10 17:37:00,-2.8,-10.1,28.15,West,275,1.0,3.0,70,0.00,,---,0.00,VWS V14.01,2014-02-10 23:37:00,
2014-02-10 17:42:00,-3.1,-10.1,28.15,West,275,1.0,2.0,71,0.00,,---,0.00,VWS V14.01,2014-02-10 23:42:00,
2014-02-10 17:47:00,-3.2,-10.2,28.15,West,277,3.0,3.0,71,0.00,,---,0.00,VWS V14.01,2014-02-10 23:47:00,
2014-02-10 17:52:00,-3.4,-10.1,28.15,West,276,0.0,4.0,72,0.00,,---,0.00,VWS V14.01,2014-02-10 23:52:00,
2014-02-10 17:58:00,-3.6,-10.4,28.15,West,275,1.0,3.0,72,0.00,,---,0.00,VWS V14.01,2014-02-10 23:58:00,
2014-02-10 18:03:00,-3.9,-10.6,28.15,West,273,1.0,3.0,72,0.00,,---,0.00,VWS V14.01,2014-02-11 00:03:00,
2014-02-10 18:08:00,-4.0,-10.4,28.15,West,271,2.0,2.0,73,0.00,,---,0.00,VWS V14.01,2014-02-11 00:08:00,
2014-02-10 18:13:00,-4.2,-10.6,28.15,West,269,4.0,4.0,73,0.00,,---,0.00,VWS V14.01,2014-02-11 00:13:00,
2014-02-10 18:18:00,-4.1,-10.6,28.15,West,271,0.0,2.0,73,0.00,,---,0.00,VWS V14.01,2014-02-11 00:18:00,
2014-02-10 18:23:00,-4.2,-10.6,28.15,West,266,1.0,5.0,73,0.00,,---,0.00,VWS V14.01,2014-02-11 00:23:00,
2014-02-10 18:28:00,-4.3,-10.7,28.15,West,267,0.0,2.0,73,0.00,,---,0.00,VWS V14.01,2014-02-11 00:28:00,
2014-02-10 18:33:00,-4.5,-10.9,28.15,West,267,0.0,3.0,73,0.00,,---,0.00,VWS V14.01,2014-02-11 00:33:00,
2014-02-10 18:38:00,-4.5,-10.7,28.15,West,267,1.0,3.0,74,0.00,,---,0.00,VWS V14.01,2014-02-11 00:38:00,
2014-02-10 18:43:00,-4.6,-10.8,28.15,West,267,2.0,2.0,74,0.00,,---,0.00,VWS V14.01,2014-02-11 00:43:00,
2014-02-10 18:48:00,-4.7,-10.9,28.16,West,269,1.0,3.0,74,0.00,,---,0.00,VWS V14.01,2014-02-11 00:48:00,
2014-02-10 18:53:00,-4.8,-11.0,28.16,WSW,248,2.0,5.0,74,0.00,,---,0.00,VWS V14.01,2014-02-11 00:53:00,
2014-02-10 18:59:00,-4.8,-11.0,28.16,WSW,256,1.0,4.0,74,0.00,,---,0.00,VWS V14.01,2014-02-11 00:59:00,
2014-02-10 19:04:00,-4.6,-10.8,28.16,West,281,1.0,4.0,74,0.00,,---,0.00,VWS V14.01,2014-02-11 01:04:00,
2014-02-10 19:09:00,-4.6,-10.8,28.16,WNW,282,1.0,3.0,74,0.00,,---,0.00,VWS V14.01,2014-02-11 01:09:00,
2014-02-10 19:14:00,-4.7,-10.9,28.16,West,281,3.0,3.0,74,0.00,,---,0.00,VWS V14.01,2014-02-11 01:14:00,
2014-02-10 19:19:00,-4.9,-11.1,28.16,WNW,282,2.0,3.0,74,0.00,,---,0.00,VWS V14.01,2014-02-11 01:19:00,
2014-02-10 19:24:00,-5.0,-10.9,28.16,West,276,2.0,4.0,75,0.00,,---,0.00,VWS V14.01,2014-02-11 01:24:00,
2014-02-10 19:30:00,-5.2,-11.3,28.16,West,275,0.0,1.0,74,0.00,,---,0.00,VWS V14.01,2014-02-11 01:30:00,
2014-02-10 19:35:00,-5.4,-11.3,28.16,West,275,1.0,1.0,75,0.00,,---,0.00,VWS V14.01,2014-02-11 01:35:00,
2014-02-10 19:40:00,-5.7,-11.6,28.16,West,273,2.0,2.0,75,0.00,,---,0.00,VWS V14.01,2014-02-11 01:40:00,
2014-02-10 19:45:00,-5.8,-11.7,28.16,West,273,1.0,2.0,75,0.00,,---,0.00,VWS V14.01,2014-02-11 01:45:00,
2014-02-10 19:50:00,-5.8,-11.4,28.16,West,271,0.0,3.0,76,0.00,,---,0.00,VWS V14.01,2014-02-11 01:50:00,
2014-02-10 19:56:00,-5.8,-11.4,28.16,West,269,0.0,4.0,76,0.00,,---,0.00,VWS V14.01,2014-02-11 01:56:00,
2014-02-10 20:01:00,-5.9,-11.5,28.16,West,269,0.0,2.0,76,0.00,,---,0.00,VWS V14.01,2014-02-11 02:01:00,
2014-02-10 20:06:00,-6.1,-11.9,28.16,West,269,0.0,1.0,75,0.00,,---,0.00,VWS V14.01,2014-02-11 02:06:00,
2014-02-10 20:11:00,-6.4,-12.0,28.16,West,267,0.0,0.0,76,0.00,,---,0.00,VWS V14.01,2014-02-11 02:11:00,
2014-02-10 20:16:00,-6.7,-12.3,28.16,West,267,0.0,0.0,76,0.00,,---,0.00,VWS V14.01,2014-02-11 02:16:00,
2014-02-10 20:21:00,-7.0,-12.3,28.17,West,266,1.0,1.0,77,0.00,,---,0.00,VWS V14.01,2014-02-11 02:21:00,
2014-02-10 20:27:00,-7.1,-12.4,28.17,West,267,0.0,2.0,77,0.00,,---,0.00,VWS V14.01,2014-02-11 02:27:00,
2014-02-10 20:32:00,-7.1,-12.1,28.17,West,267,0.0,4.0,78,0.00,,---,0.00,VWS V14.01,2014-02-11 02:32:00,
2014-02-10 20:37:00,-7.1,-12.1,28.17,West,267,0.0,1.0,78,0.00,,---,0.00,VWS V14.01,2014-02-11 02:37:00,
2014-02-10 20:42:00,-7.3,-12.3,28.17,West,267,2.0,3.0,78,0.00,,---,0.00,VWS V14.01,2014-02-11 02:42:00,
2014-02-10 20:48:00,-7.4,-12.4,28.17,West,267,0.0,0.0,78,0.00,,---,0.00,VWS V14.01,2014-02-11 02:48:00,
2014-02-10 20:53:00,-7.6,-12.6,28.17,West,267,0.0,1.0,78,0.00,,---,0.00,VWS V14.01,2014-02-11 02:53:00,
2014-02-10 20:58:00,-7.7,-12.7,28.17,West,267,0.0,1.0,78,0.00,,---,0.00,VWS V14.01,2014-02-11 02:58:00,
2014-02-10 21:03:00,-8.0,-12.8,28.17,West,267,0.0,0.0,79,0.00,,---,0.00,VWS V14.01,2014-02-11 03:03:00,
2014-02-10 21:08:00,-8.6,-11.0,28.17,West,267,0.0,0.0,89,0.00,,---,0.00,VWS V14.01,2014-02-11 03:08:00,
2014-02-10 21:13:00,-9.3,-14.3,28.17,West,267,0.0,0.0,78,0.00,,---,0.00,VWS V14.01,2014-02-11 03:13:00,
2014-02-10 21:18:00,-9.6,-14.3,28.17,West,267,0.0,0.0,79,0.00,,---,0.00,VWS V14.01,2014-02-11 03:18:00,
2014-02-10 21:24:00,-9.8,-14.3,28.17,West,267,0.0,0.0,80,0.00,,---,0.00,VWS V14.01,2014-02-11 03:24:00,
2014-02-10 21:29:00,-9.9,-14.4,28.17,West,267,0.0,0.0,80,0.00,,---,0.00,VWS V14.01,2014-02-11 03:29:00,
2014-02-10 21:34:00,-9.9,-14.1,28.17,West,267,0.0,0.0,81,0.00,,---,0.00,VWS V14.01,2014-02-11 03:34:00,
2014-02-10 21:39:00,-10.0,-14.5,28.17,West,267,0.0,1.0,80,0.00,,---,0.00,VWS V14.01,2014-02-11 03:39:00,
2014-02-10 21:44:00,-10.5,-15.2,28.17,West,267,0.0,0.0,79,0.00,,---,0.00,VWS V14.01,2014-02-11 03:44:00,
2014-02-10 21:50:00,-11.3,-16.2,28.17,West,267,0.0,1.0,78,0.00,,---,0.00,VWS V14.01,2014-02-11 03:50:00,
2014-02-10 21:55:00,-11.6,-16.0,28.17,West,267,0.0,0.0,80,0.00,,---,0.00,VWS V14.01,2014-02-11 03:55:00,
2014-02-10 22:00:00,-11.6,-15.8,28.17,West,267,0.0,0.0,81,0.00,,---,0.00,VWS V14.01,2014-02-11 04:00:00,
2014-02-10 22:05:00,-11.7,-15.9,28.17,West,267,0.0,0.0,81,0.00,,---,0.00,VWS V14.01,2014-02-11 04:05:00,
2014-02-10 22:10:00,-11.8,-16.0,28.17,West,267,0.0,0.0,81,0.00,,---,0.00,VWS V14.01,2014-02-11 04:10:00,
2014-02-10 22:16:00,-11.8,-16.0,28.17,West,267,0.0,0.0,81,0.00,,---,0.00,VWS V14.01,2014-02-11 04:16:00,
2014-02-10 22:21:00,-11.9,-16.1,28.17,West,267,0.0,0.0,81,0.00,,---,0.00,VWS V14.01,2014-02-11 04:21:00,
2014-02-10 22:26:00,-11.7,-15.6,28.17,West,267,0.0,0.0,82,0.00,,---,0.00,VWS V14.01,2014-02-11 04:26:00,
2014-02-10 22:31:00,-11.6,-15.5,28.17,West,267,0.0,0.0,82,0.00,,---,0.00,VWS V14.01,2014-02-11 04:31:00,
2014-02-10 22:36:00,-11.6,-15.5,28.17,West,267,0.0,0.0,82,0.00,,---,0.00,VWS V14.01,2014-02-11 04:36:00,
2014-02-10 22:41:00,-11.9,-16.1,28.17,West,267,0.0,0.0,81,0.00,,---,0.00,VWS V14.01,2014-02-11 04:41:00,
2014-02-10 22:46:00,-12.3,-17.0,28.17,West,267,0.0,0.0,79,0.00,,---,0.00,VWS V14.01,2014-02-11 04:46:00,
2014-02-10 22:51:00,-12.4,-16.8,28.17,West,267,1.0,1.0,80,0.00,,---,0.00,VWS V14.01,2014-02-11 04:51:00,
2014-02-10 22:57:00,-12.3,-16.7,28.17,West,267,0.0,0.0,80,0.00,,---,0.00,VWS V14.01,2014-02-11 04:57:00,
2014-02-10 23:01:00,-12.8,-17.7,28.17,West,267,0.0,0.0,78,0.00,,---,0.00,VWS V14.01,2014-02-11 05:01:00,
2014-02-10 23:02:00,-13.1,-18.2,28.17,West,267,0.0,0.0,77,0.00,,---,0.00,VWS V14.01,2014-02-11 05:02:00,
2014-02-10 23:03:00,-13.8,-19.2,28.17,West,267,0.0,0.0,76,0.00,,---,0.00,VWS V14.01,2014-02-11 05:03:00,
2014-02-10 23:09:00,-15.7,-21.3,28.17,West,267,0.0,0.0,75,0.00,,---,0.00,VWS V14.01,2014-02-11 05:09:00,
2014-02-10 23:14:00,-17.0,-22.5,28.17,West,267,0.0,0.0,75,0.00,,---,0.00,VWS V14.01,2014-02-11 05:14:00,
2014-02-10 23:19:00,-17.4,-22.7,28.17,West,267,0.0,0.0,76,0.00,,---,0.00,VWS V14.01,2014-02-11 05:19:00,
2014-02-10 23:24:00,-17.0,-21.3,28.17,West,267,0.0,0.0,80,0.00,,---,0.00,VWS V14.01,2014-02-11 05:24:00,
2014-02-10 23:29:00,-16.6,-20.7,28.17,West,267,0.0,0.0,81,0.00,,---,0.00,VWS V14.01,2014-02-11 05:29:00,
2014-02-10 23:34:00,-16.3,-20.4,28.16,West,267,0.0,0.0,81,0.00,,---,0.00,VWS V14.01,2014-02-11 05:34:00,
2014-02-10 23:39:00,-16.1,-20.2,28.16,West,267,0.0,0.0,81,0.00,,---,0.00,VWS V14.01,2014-02-11 05:39:00,
2014-02-10 23:45:00,-16.0,-20.1,28.16,West,267,0.0,0.0,81,0.00,,---,0.00,VWS V14.01,2014-02-11 05:45:00,
2014-02-10 23:50:00,-16.1,-20.4,28.17,West,267,0.0,0.0,80,0.00,,---,0.00,VWS V14.01,2014-02-11 05:50:00,
2014-02-10 23:55:00,-16.4,-21.0,28.17,West,267,0.0,0.0,79,0.00,,---,0.00,VWS V14.01,2014-02-11 05:55:00,